Regional Weather Roundup
Issued by NWS

Home | Current Version | Previous Version | Graphics & Text | Print | Product List | Glossary On
Versions: 1 2 3 4 5 6 7 8 9 10 11 12 13 14 15 16 17 18 19 20 21 22 23 24 25 26 27 28 29 30 31 32 33 34 35 36 37 38 39 40 41 42 43 44 45 46 47 48 49 50
000
ASUS43 KLMK 291210
RWRKY
KENTUCKY REGIONAL WEATHER ROUNDUP
NATIONAL WEATHER SERVICE LOUISVILLE KY
800 AM EDT FRI AUG 29 2014

NOTE "FAIR" INDICATES FEW OR NO CLOUDS BELOW 12,000 FEET
WITH NO SIGNIFICANT WEATHER AND/OR OBSTRUCTIONS TO VISIBILITY.

KYZ001>023-026-027-061>063-070>075-291300-
WESTERN AND SOUTH CENTRAL KENTUCKY

CITY           SKY/WX    TMP DP  RH WIND       PRES   REMARKS
PADUCAH        CLEAR     72  70  93 SE6       29.97R FOG
HENDERSON      CLEAR     72  68  88 CALM      30.00R
OWENSBORO      CLEAR     74  32  21 SE7       30.01R FOG
HOPKINSVILLE   CLEAR     71  71 100 E5        30.01R
BOWLING GREEN  CLEAR     72  70  93 CALM      30.03R FOG
GLASGOW          N/A     70  70 100 CALM      30.04R FOG
$$

KYZ024-025-028>034-038-045-046-053-291300-
NORTH CENTRAL KENTUCKY

CITY           SKY/WX    TMP DP  RH WIND       PRES   REMARKS
LOUISVILLE/SDF MOCLDY    74  67  78 E5        30.05R
LOUISVILLE/LOU PTCLDY    73  66  78 VRB5      30.06R
FORT KNOX      CLEAR     71  71 100 E5        30.04R
$$

KYZ035>037-039>044-047>052-055>060-089>105-291300-
NORTHEAST KENTUCKY

CITY           SKY/WX    TMP DP  RH WIND       PRES   REMARKS
LEXINGTON      CLEAR     72  62  71 E6        30.09R
COVINGTON      PTCLDY    68  59  73 E7        30.09R
FRANKFORT      CLEAR     68  64  87 E5        30.07R
$$

KYZ054-064>069-076>088-106>120-291300-
SOUTHEAST KENTUCKY

CITY           SKY/WX    TMP DP  RH WIND       PRES   REMARKS
JACKSON        SUNNY     67  62  84 CALM      30.11R
LONDON         SUNNY     70  66  87 CALM      30.10R FOG
SOMERSET       CLEAR     70  68  94 CALM      30.09R FOG
MIDDLESBORO    FOG       67  67 100 CALM      30.12R VSB 1
MONTICELLO     SUNNY     70  69  96 CALM      30.09R FOG
$$




USA.gov is the U.S. government's official web portal to all federal, state and local government web resources and services.